Date String (YYYY-MM-DD hh:mm:ss) UTC,Instrument flags,Ambient pressure (hPa),Sample flow (lpm),Bypass flow (lpm),Sample temperature (°C),Ambient temperature (°C),ASC tube jacket temperature (°C),LED temperature (°C),Box temperature (°C),Sample RH (%),Span deviation,Mass concentration (μg/m³),Mass concentration (μg/m³),Mass concentration (μg/m³)
DateTimeUTC,F1_M11,P_M11,Q1_M11,Q2_M11,T1_M11,T2_M11,T3_M11,T4_M11,T5_M11,U1_M11,ZSPAN_M11,X0_M11,X2_M11,X1_M11
2022-07-31 02:00:00,,0829.0,5.00,0.00,29.2,27.1,00.0,38.0,31.0,22.5,0000.0,0009.16,0005.23,0004.97
2022-07-31 02:01:00,,0828.9,4.99,0.00,29.2,27.3,00.0,38.0,31.0,21.8,0000.0,0009.04,0005.19,0004.93
2022-07-31 02:02:00,,0828.9,5.00,0.00,29.2,27.5,00.0,38.0,31.1,21.3,0000.0,0008.79,0005.12,0004.87
2022-07-31 02:03:00,,0828.9,5.01,0.00,29.3,27.7,00.0,38.0,31.2,21.9,0000.0,0008.73,0005.07,0004.82
2022-07-31 02:04:00,,0828.9,5.01,0.00,29.3,27.9,00.0,38.0,31.2,22.2,0000.0,0008.69,0005.06,0004.79
2022-07-31 02:05:00,,0828.8,4.99,0.00,29.3,28.1,00.0,38.1,31.3,22.4,0000.0,0008.71,0005.04,0004.73
2022-07-31 02:06:00,,0828.9,5.00,0.00,29.4,28.2,00.0,38.1,31.4,22.3,0000.0,0008.73,0004.99,0004.66
2022-07-31 02:07:00,,0828.9,5.00,0.00,29.4,28.3,00.0,38.1,31.4,22.1,0000.0,0008.47,0004.91,0004.59
2022-07-31 02:08:00,,0828.8,4.99,0.00,29.4,28.5,00.0,38.1,31.5,22.3,0000.0,0008.24,0004.89,0004.58
2022-07-31 02:09:00,,0828.9,5.01,0.00,29.5,28.5,00.0,38.2,31.5,22.9,0000.0,0007.88,0004.90,0004.58
2022-07-31 02:10:00,,0828.8,5.01,0.00,29.5,28.1,00.0,38.2,31.4,22.3,0000.0,0007.61,0004.89,0004.57
2022-07-31 02:11:00,,0828.9,4.99,0.00,29.4,27.3,00.0,38.1,31.2,22.9,0000.0,0007.51,0004.87,0004.55
2022-07-31 02:12:00,,0828.8,5.01,0.00,29.4,26.9,00.0,38.1,31.1,23.3,0000.0,0007.40,0004.85,0004.54
2022-07-31 02:13:00,,0828.8,4.99,0.00,29.3,26.9,00.0,38.1,31.0,23.6,0000.0,0007.46,0004.87,0004.55
2022-07-31 02:14:00,,0828.9,5.01,0.00,29.2,27.1,00.0,38.1,31.0,23.3,0000.0,0007.56,0004.90,0004.57
2022-07-31 02:15:00,,0828.9,4.99,0.00,29.2,27.3,00.0,38.0,31.1,22.6,0000.0,0007.52,0004.87,0004.55
2022-07-31 02:16:00,,0829.0,4.99,0.00,29.3,27.5,00.0,38.1,31.1,23.1,0000.0,0007.62,0004.81,0004.53
2022-07-31 02:17:00,,0829.0,5.00,0.00,29.3,27.7,00.0,38.1,31.2,22.9,0000.0,0007.61,0004.81,0004.53
2022-07-31 02:18:00,,0829.1,5.01,0.00,29.3,27.9,00.0,38.1,31.3,23.1,0000.0,0007.66,0004.83,0004.54
2022-07-31 02:19:00,,0829.1,4.99,0.00,29.3,28.0,00.0,38.1,31.3,23.1,0000.0,0007.65,0004.83,0004.53
2022-07-31 02:20:00,,0829.0,5.01,0.00,29.4,28.2,00.0,38.1,31.4,22.8,0000.0,0007.65,0004.81,0004.52
2022-07-31 02:21:00,,0829.1,4.99,0.00,29.4,28.3,00.0,38.1,31.4,22.3,0000.0,0007.65,0004.77,0004.49
2022-07-31 02:22:00,,0829.1,5.00,0.00,29.5,28.4,00.0,38.2,31.5,21.7,0000.0,0007.56,0004.71,0004.47
2022-07-31 02:23:00,,0829.1,5.00,0.00,29.5,28.5,00.0,38.2,31.5,21.9,0000.0,0007.64,0004.68,0004.43
2022-07-31 02:24:00,,0829.0,5.00,0.00,29.5,27.9,00.0,38.2,31.3,21.8,0000.0,0007.74,0004.64,0004.39
2022-07-31 02:25:00,,0829.0,5.01,0.00,29.4,27.1,00.0,38.1,31.1,21.9,0000.0,0007.63,0004.59,0004.35
2022-07-31 02:26:00,,0829.0,4.99,0.00,29.4,26.9,00.0,38.1,31.1,21.4,0000.0,0008.10,0004.57,0004.33
2022-07-31 02:27:00,,0829.0,5.00,0.00,29.3,27.0,00.0,38.1,31.0,21.4,0000.0,0008.36,0004.61,0004.35
2022-07-31 02:28:00,,0829.1,5.01,0.00,29.2,27.1,00.0,38.1,31.0,21.4,0000.0,0008.51,0004.62,0004.37
2022-07-31 02:29:00,,0829.1,5.00,0.00,29.2,27.3,00.0,38.0,31.0,21.9,0000.0,0008.86,0004.64,0004.39
2022-07-31 02:30:00,,0829.0,5.00,0.00,29.2,27.5,00.0,38.0,31.1,22.2,0000.0,0009.00,0004.67,0004.42
2022-07-31 02:31:00,,0829.0,5.00,0.00,29.3,27.7,00.0,38.1,31.2,22.5,0000.0,0009.04,0004.69,0004.44
2022-07-31 02:32:00,,0829.0,5.00,0.00,29.3,27.9,00.0,38.1,31.2,22.4,0000.0,0008.99,0004.72,0004.46
2022-07-31 02:33:00,,0829.1,5.00,0.00,29.3,28.0,00.0,38.1,31.3,22.5,0000.0,0009.01,0004.75,0004.48
2022-07-31 02:34:00,,0829.0,4.99,0.00,29.4,28.2,00.0,38.1,31.3,22.5,0000.0,0008.92,0004.77,0004.51
2022-07-31 02:35:00,,0829.0,5.00,0.00,29.4,28.3,00.0,38.1,31.4,22.5,0000.0,0008.88,0004.81,0004.54
2022-07-31 02:36:00,,0829.0,5.00,0.00,29.4,28.4,00.0,38.1,31.4,22.3,0000.0,0008.93,0004.84,0004.56
2022-07-31 02:37:00,,0829.0,5.00,0.00,29.5,28.5,00.0,38.2,31.5,22.2,0000.0,0008.41,0004.85,0004.59
2022-07-31 02:38:00,,0829.0,5.00,0.00,29.5,28.5,00.0,38.2,31.5,22.3,0000.0,0007.99,0004.85,0004.59
2022-07-31 02:39:00,,0828.9,5.00,0.00,29.5,28.0,00.0,38.2,31.3,22.1,0000.0,0007.78,0004.84,0004.58
2022-07-31 02:40:00,,0828.9,5.00,0.00,29.5,27.2,00.0,38.1,31.2,22.2,0000.0,0007.42,0004.83,0004.59
2022-07-31 02:41:00,,0828.9,5.01,0.00,29.4,27.0,00.0,38.1,31.2,22.2,0000.0,0007.37,0004.85,0004.60
2022-07-31 02:42:00,,0828.9,5.00,0.00,29.3,27.1,00.0,38.1,31.0,22.5,0000.0,0007.37,0004.87,0004.60
2022-07-31 02:43:00,,0828.9,5.00,0.00,29.3,27.2,00.0,38.1,31.1,22.6,0000.0,0007.37,0004.87,0004.60
2022-07-31 02:44:00,,0828.8,5.00,0.00,29.3,27.4,00.0,38.1,31.1,22.6,0000.0,0007.36,0004.87,0004.61
2022-07-31 02:45:00,,0828.8,5.00,0.00,29.3,27.6,00.0,38.1,31.1,22.8,0000.0,0007.39,0004.85,0004.60
2022-07-31 02:46:00,,0828.8,4.99,0.00,29.3,27.7,00.0,38.1,31.2,22.6,0000.0,0007.32,0004.84,0004.60
2022-07-31 02:47:00,,0828.9,5.01,0.00,29.3,27.9,00.0,38.1,31.3,22.3,0000.0,0007.36,0004.87,0004.60
2022-07-31 02:48:00,,0828.8,5.00,0.00,29.3,28.0,00.0,38.1,31.3,21.8,0000.0,0007.36,0004.86,0004.60
2022-07-31 02:49:00,,0828.9,4.99,0.00,29.4,28.2,00.0,38.1,31.4,22.0,0000.0,0007.37,0004.87,0004.60
2022-07-31 02:50:00,,0828.9,5.00,0.00,29.4,28.3,00.0,38.1,31.4,22.0,0000.0,0007.39,0004.89,0004.60
2022-07-31 02:51:00,,0828.9,4.99,0.00,29.5,28.4,00.0,38.2,31.4,22.0,0000.0,0007.38,0004.88,0004.58
2022-07-31 02:52:00,,0829.0,5.01,0.00,29.5,28.5,00.0,38.2,31.5,21.5,0000.0,0007.67,0004.87,0004.56
2022-07-31 02:53:00,,0829.1,4.99,0.00,29.5,28.5,00.0,38.2,31.5,21.5,0000.0,0008.06,0004.84,0004.55
2022-07-31 02:54:00,,0829.1,5.02,0.00,29.5,27.8,00.0,38.2,31.3,21.4,0000.0,0008.05,0004.84,0004.54
2022-07-31 02:55:00,,0829.1,4.99,0.00,29.4,27.1,00.0,38.2,31.1,21.5,0000.0,0008.01,0004.81,0004.52
2022-07-31 02:56:00,,0829.1,5.01,0.00,29.4,26.9,00.0,38.1,31.1,21.7,0000.0,0007.92,0004.78,0004.50
2022-07-31 02:57:00,,0829.0,5.00,0.00,29.3,27.0,00.0,38.1,31.0,22.1,0000.0,0007.89,0004.76,0004.48
2022-07-31 02:58:00,,0829.0,4.99,0.00,29.3,27.1,00.0,38.1,31.0,22.2,0000.0,0007.80,0004.69,0004.43
2022-07-31 02:59:00,,0829.1,5.00,0.00,29.3,27.3,00.0,38.1,31.1,22.3,0000.0,0007.81,0004.64,0004.38
